SL-16 DEB

Satellite information

Favourite Embed

Satellite Type and Status

DEBRISIN ORBIT

Key statistics

Satellite SL-16 DEB at a glance.

Uptime

11824

Days in orbit

Revolutions

≈ 14.1

Per day

Orbit

LEO

Low Earth Orbit

Inclination

71.1

Latest

Satellite identification and parameters

Extended collection of information and parameters for SL-16 DEB.

Object identification

Identified? True

Debris? True

Object name: SL-16 DEB

International designator: 1992-093AH

Object number (NORAD): 22344

Object ID (CCSDS): 22344

Country: COMMONWEALTH OF INDEPENDENT STATES (CIS)

Current information (Y/N): Y

RCS size: SMALL

Orbital parameters

Period: 102.028 minutes

Inclination: 71.0926 deg

SMA: 7232.807 km

Apoapsis: 930.334 km

Periapsis: 779.01 km

RAAN: 282.2598 deg

Eccentricy: 0.0104609

Argument of periapsis: 71.8468 deg

Mean anomaly: 289.401 deg

Mean motion: 14.11375127 rev/day

Mean motion (dot): 0.00001465 rev/day2

B* drag term: 0.00079291 1/REarth

Two-line elements (TLE)

Creation date: May 10, 2025, 2:32 a.m.

Reference frame: TEME

Reference center: EARTH

Epoch: May 9, 2025, 8:33 p.m. UTC

TLE line 0: 0 SL-16 DEB

TLE line 1: 1 22344U 92093AH 25129.85628002 .00001465 00000-0 79291-3 0 9995

TLE line 2: 2 22344 71.0926 282.2598 0104609 71.8468 289.4010 14.11375127652315

Live tracking on map

Real-time ground track for satellite SL-16 DEB.

In-orbit conjunctions

A list of the most updated potential collisions computed for object SL-16 DEB.

Target Orbit TCA Probability of collision Miss distance Type
CZ-6A DEB SSO 2025-04-26 15:07:01 0.001537255 26.0 (m) DEBRIS
FENGYUN 1C DEB SSO 2024-09-28 00:47:27 0.0002863233 406.0 (m) DEBRIS
CZ-4B DEB LEO 2024-09-27 02:44:21 0.000367447 847.0 (m) DEBRIS
CZ-11 DEB SSO 2024-08-04 10:51:31 0.000160384 289.0 (m) DEBRIS

Associated space launch

Second generation ELING satellite

SL-16 DEB was lifted into orbit during the mission ‘Zenit-2 | Tselina-2 12’, on board a Zenit-2 space rocket.

The launch took place on Dec. 25, 1992, 5:56 a.m. from 45/1.

For more information about the launch, click the button.

Launch to space Zenit-2 | Tselina-2 12
Zenit-2 | Tselina-2 12

Agency: N/A

Status: Launch Successful

Launch date: Dec. 25, 1992, 5:56 a.m. UTC

Rocket: Zenit-2

Launch pad: 45/1

Location: Baikonur Cosmodrome, Republic of Kazakhstan

...

Latest news about this satellite

There are no fresh news available about this satellite. Check back as we update our databases every day.


Newsletter sign-up

Weekly statistics, charts and insights to help you stay on top of the space industry.